Content
SEND FEEDBACK

Daily
Averages
Monthly
Summary
United States of America

RAPID CITY, SOUTH DAKOTA


Home > North America > United States > South Dakota
Elevation: 3162 feet     Latitude: 44 03N     Longitude: 103 04W

WEATHER
 
SELECT A DAY
Number of Records: 204,993;   Date Range: 1/1/95 - 12/18/14
 
SHARE

PRINT THIS DATA

[ ← Previous Day ]
WEATHER ALMANAC - JANUARY 23, 2013
[ Next Day → ]
[ °C ]   °F
Weather ElementAverageHighLow
Temperature15.5 °F21 °F (2:52 am)10 °F (8:52 pm)
Dewpoint10.1 °F15.1 °F (2:52 am)6.1 °F (10:52 pm)
Humidity79.3 %88 % (6:52 am)71 % (12:52 pm)
Barometer30.35 in30.44 in (5:52 pm)30.19 in (1:52 am)
Wind Speed7.3 mph19.6 mph (11:52 pm)
Wind Gust26.5 mph (11:52 pm)
Weather ElementAverage
Visibility10 mi
Wind DirectionENE (70 °)

Weather ElementTotal
Precipitation---
Heating Degree Days49.5 (Base 65)
Averaged from 27 records on January 23, 2013
WEATHER CONDITIONS BREAKOUT
WIND DIRECTION BREAKOUT
WEATHER BY HOUR - JANUARY 23, 2013
[ °C ]   °F
Local TimeTemperatureDewpointHumidityBarometerVisibilityWind DirectionWind SpeedGust SpeedPrecipitationEventsConditions
1:52 AM19.9 °F12.9 °F74 %30.19 in10.0 miNorth (10°)6.9 mphClear
2:52 AM21.0 °F15.1 °F78 %30.20 in10.0 miNorth (10°)5.8 mphClear
3:52 AM19.9 °F15.1 °F81 %30.22 in10.0 miNorth (10°)8.1 mphClear
4:52 AM18.0 °F14.0 °F84 %30.25 in10.0 miCalmClear
5:52 AM16.0 °F12.0 °F84 %30.27 in10.0 miNorth (10°)4.6 mphClear
6:52 AM12.9 °F10.0 °F88 %30.32 in10.0 miNE (40°)8.1 mphClear
7:52 AM14.0 °F10.0 °F84 %30.35 in10.0 miNE (50°)6.9 mphClear
8:52 AM14.0 °F10.0 °F84 %30.40 in10.0 miENE (70°)6.9 mphMostly Cloudy
9:41 AM15.8 °F10.4 °F79 %30.27 in10.0 miNE (40°)4.6 mphScattered Clouds
9:49 AM15.8 °F10.4 °F79 %30.27 in10.0 miNE (50°)5.8 mphOvercast
9:52 AM15.1 °F10.0 °F80 %30.43 in10.0 miNE (40°)3.5 mphOvercast
10:34 AM15.8 °F10.4 °F79 %30.27 in10.0 miCalmMostly Cloudy
10:52 AM17.1 °F10.9 °F77 %30.43 in10.0 miCalmMostly Cloudy
11:10 AM17.6 °F10.4 °F73 %30.27 in10.0 miCalmScattered Clouds
11:52 AM18.0 °F10.9 °F74 %30.41 in10.0 miCalmPartly Cloudy
12:52 PM19.0 °F10.9 °F71 %30.39 in10.0 miSE (130°)3.5 mphClear
1:52 PM19.0 °F10.9 °F71 %30.40 in10.0 miESE (110°)4.6 mphClear
2:52 PM18.0 °F10.0 °F71 %30.40 in10.0 miESE (110°)5.8 mphClear
3:52 PM17.1 °F9.0 °F71 %30.41 in10.0 miESE (120°)6.9 mphClear
4:52 PM15.1 °F9.0 °F77 %30.43 in10.0 miESE (120°)9.2 mphClear
5:52 PM14.0 °F9.0 °F80 %30.44 in10.0 miESE (120°)10.4 mphClear
6:52 PM12.9 °F8.1 °F81 %30.43 in10.0 miSE (140°)12.7 mphClear
7:52 PM12.0 °F7.0 °F80 %30.43 in10.0 miSE (140°)15.0 mphClear
8:52 PM10.0 °F7.0 °F87 %30.40 in10.0 miSE (130°)13.8 mphClear
9:52 PM10.0 °F7.0 °F87 %30.38 in10.0 miSE (140°)15.0 mphClear
10:52 PM10.0 °F6.1 °F84 %30.35 in10.0 miSSE (150°)18.4 mphClear
11:52 PM10.9 °F7.0 °F84 %30.31 in10.0 miSSE (150°)19.6 mph26.5 mphClear
Hourly data recorded from KRAP, located miles away from Rapid City, South Dakota







STORIES FROM OUR PARTNERS